TimeEST,TemperatureF,Dew PointF,Humidity,Sea Level PressureIn,VisibilityMPH,Wind Direction,Wind SpeedMPH,Gust SpeedMPH,PrecipitationIn,Events,Conditions,WindDirDegrees,DateUTC
12:52 AM,28.9,18.0,64,29.68,10.0,NW,13.8,17.3,N/A,,Overcast,310,2013-03-04 05:52:00
1:52 AM,28.9,18.0,64,29.68,10.0,NW,11.5,18.4,N/A,,Overcast,310,2013-03-04 06:52:00
2:52 AM,28.0,17.1,63,29.68,10.0,NW,9.2,-,N/A,,Overcast,310,2013-03-04 07:52:00
3:52 AM,28.0,17.1,63,29.68,10.0,Variable,6.9,-,N/A,,Overcast,0,2013-03-04 08:52:00
4:52 AM,28.0,17.1,63,29.70,10.0,NW,9.2,-,N/A,,Overcast,320,2013-03-04 09:52:00
6:52 AM,27.0,17.1,66,29.71,10.0,Variable,6.9,-,N/A,,Clear,0,2013-03-04 11:52:00
7:52 AM,30.0,18.0,61,29.71,10.0,NW,11.5,19.6,N/A,,Clear,310,2013-03-04 12:52:00
8:52 AM,30.9,19.0,61,29.71,10.0,WNW,12.7,24.2,N/A,,Scattered Clouds,300,2013-03-04 13:52:00
8:59 AM,30.2,19.4,64,29.71,10.0,NW,13.8,24.2,N/A,,Mostly Cloudy,320,2013-03-04 13:59:00
9:52 AM,32.0,19.0,59,29.71,10.0,WNW,11.5,21.9,N/A,,Overcast,300,2013-03-04 14:52:00
10:52 AM,34.0,19.9,56,29.70,10.0,West,16.1,23.0,N/A,,Overcast,280,2013-03-04 15:52:00
11:31 AM,35.6,19.4,52,29.68,10.0,NW,12.7,24.2,N/A,,Overcast,310,2013-03-04 16:31:00
11:52 AM,35.1,19.9,54,29.69,10.0,WNW,11.5,27.6,N/A,,Overcast,290,2013-03-04 16:52:00
12:52 PM,36.0,19.0,50,29.68,10.0,NW,11.5,28.8,N/A,,Overcast,310,2013-03-04 17:52:00
1:52 PM,37.0,19.0,48,29.67,10.0,WNW,20.7,29.9,N/A,,Scattered Clouds,290,2013-03-04 18:52:00
2:52 PM,37.0,19.0,48,29.67,10.0,West,13.8,24.2,N/A,,Scattered Clouds,280,2013-03-04 19:52:00
3:52 PM,36.0,18.0,48,29.68,10.0,WNW,13.8,25.3,N/A,,Partly Cloudy,300,2013-03-04 20:52:00
4:52 PM,36.0,18.0,48,29.69,10.0,WNW,10.4,26.5,N/A,,Partly Cloudy,300,2013-03-04 21:52:00
5:52 PM,33.1,18.0,54,29.72,10.0,WNW,12.7,24.2,N/A,,Clear,290,2013-03-04 22:52:00
6:52 PM,32.0,18.0,56,29.74,10.0,WNW,8.1,18.4,N/A,,Clear,300,2013-03-04 23:52:00
7:52 PM,30.9,18.0,59,29.76,10.0,NW,11.5,16.1,N/A,,Overcast,310,2013-03-05 00:52:00
8:52 PM,30.9,19.0,61,29.77,10.0,NW,11.5,23.0,N/A,,Mostly Cloudy,320,2013-03-05 01:52:00
9:52 PM,30.9,19.0,61,29.78,10.0,NNW,12.7,23.0,N/A,,Overcast,330,2013-03-05 02:52:00
10:52 PM,30.9,19.0,61,29.79,10.0,NW,9.2,-,N/A,,Scattered Clouds,310,2013-03-05 03:52:00
11:52 PM,30.0,19.0,64,29.80,10.0,WNW,8.1,-,N/A,,Clear,290,2013-03-05 04:52:00